Regional Weather Roundup
Issued by NWS State College, PA

Home | Current Version | Previous Version | Graphics & Text | Print | Product List | Glossary On
Versions: 1 2 3 4 5 6 7 8 9 10 11 12 13 14 15 16 17 18 19 20 21 22 23 24 25 26 27 28 29 30 31 32 33 34 35 36 37 38 39 40 41 42 43 44 45 46 47 48 49 50
000
ASUS41 KCTP 150110
RWRCTP

REGIONAL WEATHER ROUNDUP
NATIONAL WEATHER SERVICE STATE COLLEGE PA
900 PM EDT SUN SEP 14 2014

Note: "fair" indicates few or no clouds below 12,000 feet with no
significant weather and/or obstructions to visibility.

* = STATION THAT DOES NOT REPORT PRECIPITATION /E.G. RAIN...SNOW...ETC/
    THUNDER OR FOG.

PAZ002>004-007>009-013>016-020>023-029>032-150200-
WESTERN PENNSYLVANIA

CITY           SKY/WX    TMP DP  RH WIND       PRES   REMARKS
ERIE           PTCLDY    54  45  71 CALM      30.24R
MEADVILLE      CLEAR     52  45  77 NE5       30.24R
FRANKLIN*      CLEAR     52  43  71 CALM      30.24S
NEW CASTLE     FAIR      49  47  93 CALM      30.24R
BEAVER COUNTY  NOT AVBL
BUTLER*        CLEAR     50  43  76 CALM      30.25R
PITTSBURGH INT PTCLDY    55  47  74 CALM      30.23R
PITTSBURGH     CLEAR     59  42  53 W3        30.22R
INDIANA*       CLEAR     50  48  93 CALM      30.27R
LATROBE        CLEAR     54  52  94 CALM      30.24R
WASHINGTON CO* CLEAR     46  43  87 CALM      30.23S
$$

PAZ004>006-010>012-017>019-024>028-033>037-041-042-045-046-049>053-150200-
CENTRAL PENNSYLVANIA

CITY           SKY/WX    TMP DP  RH WIND       PRES   REMARKS
BRADFORD       CLOUDY    51  43  74 CALM      30.24R
DUBOIS         MOCLDY    51  44  77 N3        30.23R
CLEARFIELD     CLEAR     49  47  93 N7        30.24R
JOHNSTOWN      CLEAR     54  43  66 N6        30.24R
ALTOONA        MOCLDY    51  49  92 E3        30.24R
STATE COLLEGE  CLEAR     52  46  82 CALM      30.23S
WILLIAMSPORT   CLEAR     53  48  83 CALM      30.22R
SELINSGROVE    MOCLDY    50  48  93 CALM      30.23R
FT INDIANTOWN  NOT AVBL
CAPITAL CITY   CLEAR     54  48  80 CALM      30.23R
HARRISBURG     PTCLDY    55  49  80 CALM      30.22R
YORK           CLEAR     48  45  89 CALM      30.23R
$$

PAZ038>040-043-044-047-048-054-055-060>062-067>071-150200-
EASTERN PENNSYLVANIA

CITY           SKY/WX    TMP DP  RH WIND       PRES   REMARKS
SCRANTON       CLEAR     52  45  77 E8        30.21S
MOUNT POCONO   CLEAR     48  44  86 N3        30.22R
ALLENTOWN      CLEAR     55  48  77 SW5       30.21R
QUAKERTOWN*    CLEAR     50  48  93 CALM      30.23R
READING        CLEAR     56  48  74 SW3       30.21R
LANCASTER      CLEAR     57  46  66 CALM      30.22S
COATESVILLE    CLEAR     54  50  87 W3        30.24R
POTTSTOWN      CLEAR     53  49  86 CALM      30.23R
BLUE BELL      PTCLDY    54  52  94 CALM      30.21R
DOYLESTOWN     PTCLDY    54  49  83 CALM      30.21R
WILLOW GROVE   NOT AVBL
NORTH PHILA    MOCLDY    62  47  57 NW5       30.22R
PHILADELPHIA   MOCLDY    64  49  57 SW9       30.22R
$$



USA.gov is the U.S. government's official web portal to all federal, state and local government web resources and services.